Home   Weather   Saint-Georges   Past weeks

Flag for Canada Past Weather in Saint-Georges, Quebec, Canada — Yesterday and Last 2 Weeks

Now
40 °F

Quite cool.


Feels Like: 35 °F
Forecast: 45 / 60 °F
Wind: 7 mph from Southeast

Location: Beauceville

Current Time: Apr 26, 2017 at 12:24:58 am

Latest Report: Apr 25, 2017 at 11:00 pm


Visibility: N/A

Pressure: 30.19 "Hg

Humidity: 100%

Dew Point: 40 °F

Location of Saint-GeorgesLocation

Past Weather in Saint-Georges — Graph

°F

Saint-Georges Temperature Yesterday

Maximum temperature yesterday: 61 °F (at 3:00 pm)
Minimum temperature yesterday: 27 °F (at 4:00 am)
Average temperature yesterday: 43 °F

High & Low Weather Summary for the Past Weeks

 TemperatureHumidityPressure
High63 °F (Apr 15, 3:00 pm)100% (Apr 20, 12:00 am)30.50 "Hg (Apr 20, 12:00 am)
Low27 °F (Apr 14, 5:00 am)28% (Apr 24, 4:00 pm)29.63 "Hg (Apr 16, 5:00 am)
Average41 °F79%30.10 "Hg
* Reported Apr 10 11:00 pm — Apr 25 11:00 pm, Saint-Georges, Weather by CustomWeather, © 2017

Note: Actual official high and low records may vary slightly from our data, if they occured in-between our weather recording intervals... More about our weather records

Advertising

Saint-Georges Weather History for the Previous 24 Hours

Scroll right to see more
 ConditionsComfort  
Time TempWeatherWind HumidityBarometerVisibility
11:00 pm
Tue, Apr 25
40 °FQuite cool.7 mph100%30.19 "HgN/A
10:00 pm43 °FQuite cool.8 mph93%30.20 "HgN/A
9:00 pm42 °FQuite cool.7 mph100%30.22 "HgN/A
8:00 pm45 °FCool.6 mph89%30.24 "HgN/A
7:00 pm49 °FCool.9 mph75%30.24 "HgN/A
6:00 pm52 °FCool.7 mph63%30.25 "HgN/A
5:00 pm56 °FRefreshingly cool.14 mph44%30.25 "HgN/A
4:00 pm58 °FRefreshingly cool.12 mph35%30.25 "HgN/A
3:00 pm61 °FRefreshingly cool.16 mph31%30.27 "HgN/A
2:00 pm58 °FRefreshingly cool.10 mph35%30.28 "HgN/A
1:00 pm54 °FCool.10 mph35%30.30 "HgN/A
12:00 pm53 °FCool.10 mph33%30.32 "HgN/A
11:00 am49 °FCool.13 mph33%30.34 "HgN/A
10:00 am45 °FCool.10 mph34%30.37 "HgN/A
9:00 am39 °FChilly.9 mph51%30.39 "HgN/A
8:00 am34 °FChilly.8 mph56%30.39 "HgN/A
6:00 am30 °FChilly.5 mph68%30.37 "HgN/A
5:00 am29 °FChilly.3 mph75%30.35 "HgN/A
4:00 am27 °FChilly.No wind84%30.34 "HgN/A
3:00 am28 °FChilly.1 mph81%30.34 "HgN/A
2:00 am29 °FChilly.2 mph78%30.34 "HgN/A
1:00 am29 °FChilly.2 mph77%30.33 "HgN/A
12:00 am29 °FChilly.2 mph77%30.33 "HgN/A
Weather by CustomWeather, © 2017

See weather overviewHow to use our weather pages